Cloud_Cover
0 0 0 0 0 0 0 0 0 0 0 0 0 0 0 0 0 0 0 0 0 0 0 0 0 0 0 0 0 0 0 0 0 3 86 14 21 0 0 0 0 0 10 15
0 0 0 0 0 0 0 0 0 0 0 0 0 0 0 0 0 0 0 0 0 0 0 0 0 0 0 0 0 0 0 0 0 0 0 0 0 3 3 0 0 0 2 13
0 0 0 0 0 0 0 0 0 0 0 0 0 0 0 0 0 0 0 0 0 0 0 0 0 0 0 0 0 0 0 0 0 0 0 17 17 38 16 2 0 0 0 0
0 0 0 0 0 0 0 0 0 0 0 0 0 0 0 0 0 0 0 0 0 0 0 0 0 0 0 0 0 0 0 0 0 0 0 5 8 21 100 74 1 0 0 0
0 0 0 0 0 0 0 0 0 0 0 0 0 0 0 0 0 0 0 0 0 0 0 0 0 1 0 0 0 0 0 0 0 0 0 39 2 3 94 95 5 0 0 0
0 0 0 0 0 0 0 0 0 0 0 0 0 0 0 0 0 0 0 0 0 0 5 2 3 5 5 2 1 2 0 0 0 1 4 29 8 100 92 86 5 0 0 0
0 0 0 0 0 0 0 0 0 0 0 0 0 0 0 0 0 0 0 0 0 11 5 5 5 0 2 5 38 100 29 3 5 2 4 4 0 3 62 22 4 5 7 2
0 0 0 0 0 0 0 0 0 0 0 0 0 0 0 0 0 0 0 3 5 5 5 59 5 5 5 3 83 100 100 99 7 5 12 91 15 72 5 5 12 31 5 5
0 0 0 0 0 0 0 0 0 5 5 4 0 0 0 0 0 0 0 5 67 27 5 2 0 5 0 1 28 100 91 100 37 89 97 61 87 6 72 78 9 7 5 11
0 0 0 0 0 0 0 0 2 44 66 11 0 0 0 0 0 2 2 0 4 1 0 0 0 1 3 1 2 82 100 100 100 5 79 62 48 89 77 4 20 66 100 100
0 0 0 0 0 0 0 5 5 33 89 83 19 1 0 0 2 71 35 40 5 5 5 5 2 3 5 5 4 100 100 100 100 5 42 22 18 9 4 31 100 100 100 96
0 0 0 0 0 0 0 0 1 98 28 74 35 13 0 0 8 95 88 6 12 5 7 39 11 9 5 5 16 100 100 100 100 89 7 5 5 12 5 82 100 75 96 52
4 5 3 0 0 0 0 0 1 75 91 38 99 10 44 27 72 100 75 98 72 100 20 100 99 93 10 20 87 100 100 100 100 88 5 8 5 3 3 41 69 100 100 100
6 24 5 5 0 0 5 5 5 75 100 52 48 58 4 75 76 68 100 97 91 100 16 8 73 89 67 88 100 100 100 100 75 58 76 5 39 92 46 44 100 100 100 100
4 3 2 5 0 1 5 5 1 75 16 98 6 46 37 89 59 100 100 97 100 100 25 6 99 100 25 100 100 100 100 100 100 100 89 37 82 100 100 90 100 100 100 100
0 58 3 5 5 4 5 5 5 4 5 63 74 60 96 100 98 100 100 100 99 100 22 59 100 100 35 100 100 100 100 100 100 100 100 97 100 100 100 100 100 100 100 100
34 14 66 5 5 5 0 0 4 5 17 46 44 13 56 45 96 100 96 56 39 71 5 44 95 100 99 99 100 100 100 100 97 100 84 42 45 100 100 100 100 100 100 100
40 88 58 80 7 11 0 0 4 96 6 7 5 60 98 70 100 100 98 80 62 33 95 100 100 100 100 71 76 100 100 100 76 55 39 18 74 100 100 100 100 100 100 100
9 82 46 50 83 7 0 2 8 10 6 6 87 78 100 100 100 100 19 90 87 98 95 100 100 100 100 94 100 100 99 78 100 88 55 99 100 100 100 100 100 100 100 100
50 75 33 65 93 75 4 3 35 68 54 100 99 97 100 100 100 100 100 100 100 100 100 100 100 100 100 96 98 100 100 100 98 28 76 100 100 100 100 100 100 100 100 100
5 47 37 81 95 18 2 4 7 100 68 99 99 98 100 100 100 85 92 100 100 100 100 100 100 100 100 100 100 100 100 100 80 100 100 100 100 100 100 100 100 100 100 100
5 38 80 76 99 63 4 10 66 71 8 96 62 52 100 73 62 86 98 100 100 100 100 100 100 100 100 100 100 100 100 100 100 100 100 100 100 100 100 100 100 100 100 100
40 7 87 93 21 5 46 94 33 93 99 89 100 100 100 99 99 89 100 100 100 100 100 100 100 100 100 100 100 100 100 100 100 100 100 100 100 100 100 100 100 100 100 100
28 25 73 90 5 8 6 5 52 100 100 100 93 100 100 100 100 100 100 100 100 100 100 100 100 100 100 100 100 100 100 100 96 100 100 100 100 100 100 100 100 100 100 100
45 92 86 34 40 65 43 39 100 99 100 100 94 92 100 100 100 100 100 100 100 100 100 100 100 100 100 100 100 100 100 98 100 100 100 100 100 100 100 100 100 100 100 100
69 36 91 71 23 100 100 100 100 100 92 92 98 100 100 100 100 100 100 100 100 100 100 100 100 100 100 100 100 96 100 100 100 100 100 100 100 100 100 100 100 100 100 100